SL-8 R/B

Satellite information

Favourite Embed

Satellite Type and Status

ROCKET BODYIN ORBIT

Key statistics

Satellite SL-8 R/B at a glance.

Uptime

18755

Days in orbit

Revolutions

≈ 13.8

Per day

Orbit

LEO

Low Earth Orbit

Inclination

82.9

Latest

Satellite identification and parameters

Extended collection of information and parameters for SL-8 R/B.

Object identification

Identified? True

Debris? False

Object name: SL-8 R/B

International designator: 1974-048B

Object number (NORAD): 7350

Object ID (CCSDS): 7350

Country: COMMONWEALTH OF INDEPENDENT STATES (CIS)

Current information (Y/N): Y

RCS size: LARGE

Orbital parameters

Period: 104.499 minutes

Inclination: 82.9408 deg

SMA: 7349.133 km

Apoapsis: 983.742 km

Periapsis: 958.254 km

RAAN: 287.8095 deg

Eccentricy: 0.0017341

Argument of periapsis: 22.9064 deg

Mean anomaly: 152.6417 deg

Mean motion: 13.77998057 rev/day

Mean motion (dot): 0.00000006 rev/day2

B* drag term: -0.0000089266 1/REarth

Two-line elements (TLE)

Creation date: Oct. 31, 2025, 10:56 p.m.

Reference frame: TEME

Reference center: EARTH

Epoch: Oct. 31, 2025, 6:07 p.m. UTC

TLE line 0: 0 SL-8 R/B

TLE line 1: 1 7350U 74048B 25304.75553983 .00000006 00000-0 -89266-5 0 9990

TLE line 2: 2 7350 82.9408 287.8095 0017341 22.9064 152.6417 13.77998057580810

Live tracking on map

Real-time ground track for satellite SL-8 R/B.

In-orbit conjunctions

A list of the most updated potential collisions computed for object SL-8 R/B.

Target Orbit TCA Probability of collision Miss distance Type
NIMBUS 2 DEB SSO 2025-10-27 20:31:49 0.0001792202 410.0 (m) DEBRIS
COSMOS 2251 DEB LEO 2025-08-31 06:27:06 0.0001510646 390.0 (m) DEBRIS
COSMOS 1375 DEB LEO 2025-05-15 21:56:35 0.000109568 81.0 (m) DEBRIS
SL-8 DEB LEO 2024-10-04 17:03:01 0.0001585479 83.0 (m) DEBRIS

Associated space launch

The first soviet navigation system called Tsiklon consisted of Zaliv satellites in low earth orbit.

SL-8 R/B was lifted into orbit during the mission ‘Kosmos-3M | Zaliv 17’, on board a Kosmos-3M space rocket.

The launch took place on June 27, 1974, 3:39 p.m. from 132/1 (132L).

For more information about the launch, click the button.

Launch to space Kosmos-3M | Zaliv 17
Kosmos-3M | Zaliv 17

Agency: N/A

Status: Launch Successful

Launch date: June 27, 1974, 3:39 p.m. UTC

Rocket: Kosmos-3M

Launch pad: 132/1 (132L)

Location: Plesetsk Cosmodrome, Russian Federation

...

Latest news about this satellite

There are no fresh news available about this satellite. Check back as we update our databases every day.


Newsletter sign-up

Weekly statistics, charts and insights to help you stay on top of the space industry.